Regional Weather Roundup
Issued by NWS

Home | Current Version | Previous Version | Text Only | Print | Product List | Glossary Off
Versions: 1 2 3 4 5 6 7 8 9 10 11 12 13 14 15 16 17 18 19 20 21 22 23 24 25 26 27

000
ASUS45 KSLC 270010
RWRUT

UTAH REGIONAL WEATHER ROUNDUP
NATIONAL WEATHER SERVICE SALT LAKE CITY UT
500 PM MST SUN FEB 26 2017

UTZ001>011-023>025-270100-

NORTHERN UTAH

CITY           SKY/WX    TMP DP  RH WIND       PRES   REMARKS
BRIGHAM CITY     N/A     39  19  44 S13       29.76F WCI  31
HILL AFB       MOSUNNY   36  14  41 S14       29.74F WCI  27
LOGAN          CLOUDY    35  15  44 VRB5      29.75F WCI  31
OGDEN          PTSUNNY   36  17  46 S13       29.75F WCI  27
SALT LAKE CITY PTSUNNY   39  18  42 S16       29.75F WCI  30
TOOELE VALLEY  MOSUNNY   39  21  48 S14       29.75F WCI  31
WENDOVER       SUNNY     43  21  42 SE10      29.69F
HEBER CITY     PTSUNNY   30  16  55 E6        29.74F WCI  24
WEST JORDAN    SUNNY     40  28  63 S12       29.76F WCI  32

$$

UTZ011>015-024>027-270100-

CENTRAL/NORTHEAST UTAH

CITY           SKY/WX    TMP DP  RH WIND       PRES   REMARKS
PROVO AIRPORT  MOSUNNY   34  22  61 SE3       29.78F
MOAB/CANYONLAN SUNNY     46   9  22 S13       29.79F
DELTA          PTSUNNY   41  21  45 S17       29.74F
PRICE          CLOUDY    34  14  43 SE8       29.78F WCI  27
RICHFIELD      MOSUNNY   43  10  26 S7G13     29.76
ROOSEVELT      SUNNY     30  12  47 CALM      29.85S
VERNAL         SUNNY     27  10  49 CALM      29.81F

$$

UTZ013>016-019>022-027-270100-

SOUTHERN UTAH

CITY           SKY/WX    TMP DP  RH WIND       PRES   REMARKS
BRYCE CANYON   PTSUNNY   31  13  47 SW15      29.80S WCI  20
CEDAR CITY     SUNNY     43  18  36 SW21G31   29.76F
MILFORD        MOSUNNY   44  20  38 SW25G33   29.73F
ST GEORGE      CLEAR     54  23  30 W13       29.81F
HANKSVILLE     PTSUNNY   45  14  29 SE9       29.81F
KANAB          PTSUNNY   48  19  32 SW10G23   29.85
BLANDING       MOSUNNY   40  10  29 W8G17     29.91F WCI  34

$$

REGIONAL REPORTS     COLORADO/ARIZONA

CITY           SKY/WX    TMP DP  RH WIND       PRES   REMARKS
CRAIG, CO      CLOUDY    29   5  36 VRB5      29.79F WCI  24
GRAND JUNCTION SUNNY     42   7  23 E5        29.82F
RIFLE, CO      SUNNY     38   6  26 W13       29.81F WCI  30
MONTROSE, CO   SUNNY     39  10  30 SW10      29.85F WCI  32
CORTEZ, CO     MOSUNNY   41   8  25 W12       29.87S
COLORADO CITY    N/A     50  21  32 SW7       29.84S
PAGE, AZ       MOSUNNY   50  14  23 NE7       29.80F
GRAND CANYON   MOSUNNY   40  22  48 SW17G24   29.85F WCI  31
KINGMAN, AZ    SUNNY     53  14  21 SW17      29.85F
FLAGSTAFF, AZ  CLOUDY    34  20  56 SW15      29.89R WCI  24

$$

REGIONAL REPORTS    NEVADA/IDAHO/WYOMING

CITY           SKY/WX    TMP DP  RH WIND       PRES   REMARKS
LAS VEGAS, NV  MOSUNNY   58  28  32 S13       29.79F
ELY, NY        SUNNY     35  16  45 SW16G24   29.71F WCI  25
ELKO, NV       MOSUNNY   39  11  31 SW16G24   29.65F WCI  30
POCATELLO, ID  CLOUDY    30  19  63 SW7G23    29.72F WCI  23
BURLEY, ID     MOSUNNY   37  19  48 S9        29.68F WCI  30
FORT BRIDGER,    N/A     22  10  62 SE6       29.75S WCI  14
EVANSTON, WY   SUNNY     21   7  54 SW17      29.70F WCI   7
ROCK SPRINGS,  SUNNY     20   5  52 SW6       29.75F WCI  12
KEMMERER, WY     N/A     21   9  58 CALM      29.71F

$$




USA.gov is the U.S. government's official web portal to all federal, state and local government web resources and services.